Location: Unspecified
(0.0000°N, 0.0000°E)
Time: 08:34:15
(UTC+00:00)

Hubble Space Telescope - Pass Details

Date: 26 November 2022
Orbit: 519 x 523 km, 28.5° (Epoch: 28 November)

Event Time Altitude Azimuth Distance (km) Brightness Sun altitude
Rises 19:15:25 0° 291° (WNW) 2,722 5.1 -20.5°
Reaches altitude 10° 19:17:45 10° 285° (WNW) 1,830 4.2 -21.0°
Maximum altitude 19:21:51 48° 210° (SSW) 728 1.7 -22.0°
Enters shadow 19:23:49 27° 150° (SSE) 1,083 2.2 -22.4°
